| time (UTC) | temp F | wind direction | speed knots | gust knots | rain 1hr in | rain 24hr in | rain mn in | humidity % | barometer mb |
| 20260503215335 | 69 | 144 | 0.9 | 0.9 | 0.00 | 0.00 | 0.00 | 63 | 1017.1 |
| 20260503214833 | 70 | 125 | 1.7 | 1.7 | 0.00 | 0.00 | 0.00 | 61 | 1017.0 |
| 20260503214330 | 71 | 113 | 1.7 | 1.7 | 0.00 | 0.00 | 0.00 | 57 | 1017.1 |
| 20260503213827 | 70 | 114 | 0.0 | 0.9 | 0.00 | 0.00 | 0.00 | 62 | 1017.0 |
| 20260503213325 | 69 | 152 | 4.3 | 6.1 | 0.00 | 0.00 | 0.00 | 59 | 1017.2 |
| 20260503212821 | 69 | 130 | 0.9 | 1.7 | 0.00 | 0.00 | 0.00 | 62 | 1017.1 |
| 20260503212320 | 70 | 100 | 0.9 | 1.7 | 0.00 | 0.00 | 0.00 | 60 | 1017.3 |
| 20260503211817 | 69 | 112 | 0.9 | 0.9 | 0.00 | 0.00 | 0.00 | 62 | 1017.2 |
| 20260503211313 | 69 | 154 | 2.6 | 5.2 | 0.00 | 0.00 | 0.00 | 60 | 1017.4 |
| 20260503210808 | 68 | 108 | 0.9 | 0.9 | 0.00 | 0.00 | 0.00 | 61 | 1017.3 |
| 20260503210306 | 67 | 93 | 2.6 | 4.3 | 0.00 | 0.00 | 0.00 | 61 | 1017.4 |
| 20260503205800 | 68 | 112 | 3.5 | 5.2 | 0.00 | 0.00 | 0.00 | 62 | 1017.4 |
| 20260503205257 | 68 | 107 | 0.9 | 1.7 | 0.00 | 0.00 | 0.00 | 61 | 1017.3 |
| 20260503204753 | 70 | 108 | 3.5 | 4.3 | 0.00 | 0.00 | 0.00 | 59 | 1017.5 |
| 20260503204251 | 68 | 119 | 0.9 | 1.7 | 0.00 | 0.00 | 0.00 | 60 | 1017.5 |
| 20260503203748 | 68 | 95 | 2.6 | 2.6 | 0.00 | 0.00 | 0.00 | 60 | 1017.6 |
| 20260503203245 | 68 | 96 | 2.6 | 4.3 | 0.00 | 0.00 | 0.00 | 62 | 1017.4 |
| 20260503202742 | 68 | 78 | 3.5 | 5.2 | 0.00 | 0.00 | 0.00 | 60 | 1017.8 |
| 20260503202240 | 68 | 183 | 1.7 | 2.6 | 0.00 | 0.00 | 0.00 | 60 | 1017.5 |
| 20260503201738 | 69 | 119 | 0.9 | 0.9 | 0.00 | 0.00 | 0.00 | 63 | 1017.5 |
| 20260503201235 | 70 | 119 | 2.6 | 2.6 | 0.00 | 0.00 | 0.00 | 57 | 1017.6 |
| 20260503200731 | 71 | 138 | 4.3 | 6.1 | 0.00 | 0.00 | 0.00 | 55 | 1017.6 |
| 20260503200222 | 70 | 104 | 2.6 | 2.6 | 0.00 | 0.00 | 0.00 | 58 | 1017.7 |
| 20260503195719 | 69 | 101 | 1.7 | 1.7 | 0.00 | 0.00 | 0.00 | 59 | 1017.8 |
| 20260503195216 | 69 | 120 | 0.9 | 0.9 | 0.00 | 0.00 | 0.00 | 59 | 1017.8 |
| 20260503194713 | 70 | 116 | 0.9 | 0.9 | 0.00 | 0.00 | 0.00 | 57 | 1017.9 |
| 20260503194209 | 72 | 141 | 1.7 | 1.7 | 0.00 | 0.00 | 0.00 | 49 | 1018.0 |
| 20260503193706 | 72 | 107 | 0.9 | 0.9 | 0.00 | 0.00 | 0.00 | 50 | 1017.9 |
| 20260503193202 | 71 | 59 | 1.7 | 2.6 | 0.00 | 0.00 | 0.00 | 49 | 1018.3 |
| 20260503192657 | 70 | 166 | 1.7 | 1.7 | 0.00 | 0.00 | 0.00 | 51 | 1018.1 |
| 20260503192153 | 71 | 289 | 4.3 | 5.2 | 0.00 | 0.00 | 0.00 | 51 | 1018.1 |
| 20260503191649 | 69 | 110 | 0.9 | 0.9 | 0.00 | 0.00 | 0.00 | 53 | 1018.5 |
| 20260503191147 | 70 | 79 | 2.6 | 2.6 | 0.00 | 0.00 | 0.00 | 52 | 1018.4 |
| 20260503190643 | 70 | 129 | 1.7 | 1.7 | 0.00 | 0.00 | 0.00 | 51 | 1018.7 |
| 20260503190140 | 69 | 356 | 3.5 | 4.3 | 0.00 | 0.00 | 0.00 | 53 | 1018.7 |
| 20260503185637 | 69 | 119 | 0.0 | 0.9 | 0.00 | 0.00 | 0.00 | 52 | 1018.7 |
| 20260503185132 | 69 | 124 | 0.9 | 0.9 | 0.00 | 0.00 | 0.00 | 53 | 1018.9 |
| 20260503184628 | 69 | 147 | 1.7 | 2.6 | 0.00 | 0.00 | 0.00 | 50 | 1018.8 |
| 20260503184124 | 71 | 113 | 2.6 | 2.6 | 0.00 | 0.00 | 0.00 | 50 | 1019.2 |
| 20260503183621 | 69 | 352 | 1.7 | 2.6 | 0.00 | 0.00 | 0.00 | 53 | 1019.0 |
| 20260503183118 | 70 | 112 | 3.5 | 5.2 | 0.00 | 0.00 | 0.00 | 50 | 1019.1 |
| 20260503182616 | 70 | 106 | 2.6 | 2.6 | 0.00 | 0.00 | 0.00 | 47 | 1019.2 |
| 20260503182114 | 70 | 128 | 1.7 | 1.7 | 0.00 | 0.00 | 0.00 | 50 | 1019.5 |
| 20260503181611 | 69 | 276 | 4.3 | 5.2 | 0.00 | 0.00 | 0.00 | 53 | 1018.9 |
| 20260503181108 | 70 | 84 | 1.7 | 1.7 | 0.00 | 0.00 | 0.00 | 48 | 1019.3 |
| 20260503180605 | 70 | 272 | 5.2 | 6.1 | 0.00 | 0.00 | 0.00 | 54 | 1019.2 |
| 20260503180103 | 71 | 92 | 0.9 | 1.7 | 0.00 | 0.00 | 0.00 | 48 | 1019.3 |
| 20260503175559 | 72 | 309 | 1.7 | 2.6 | 0.00 | 0.00 | 0.00 | 50 | 1019.4 |
| 20260503175056 | 70 | 111 | 0.0 | 0.9 | 0.00 | 0.00 | 0.00 | 57 | 1019.4 |
| 20260503174553 | 69 | 300 | 9.6 | 12.2 | 0.00 | 0.00 | 0.00 | 52 | 1019.5 |
| 20260503174050 | 69 | 249 | 1.7 | 1.7 | 0.00 | 0.00 | 0.00 | 51 | 1019.4 |
| 20260503173545 | 71 | 151 | 1.7 | 1.7 | 0.00 | 0.00 | 0.00 | 51 | 1019.3 |
| 20260503173041 | 69 | 77 | 1.7 | 1.7 | 0.00 | 0.00 | 0.00 | 51 | 1019.3 |
| 20260503172539 | 67 | 120 | 0.9 | 0.9 | 0.00 | 0.00 | 0.00 | 56 | 1019.6 |
| 20260503172036 | 68 | 105 | 0.0 | 0.9 | 0.00 | 0.00 | 0.00 | 52 | 1019.8 |
| 20260503171532 | 69 | 100 | 0.9 | 0.9 | 0.00 | 0.00 | 0.00 | 49 | 1019.8 |
| 20260503171030 | 68 | 78 | 1.7 | 1.7 | 0.00 | 0.00 | 0.00 | 54 | 1019.8 |
| 20260503170526 | 67 | 119 | 0.0 | 0.9 | 0.00 | 0.00 | 0.00 | 54 | 1019.8 |
| 20260503150912 | 65 | 89 | 0.9 | 1.7 | 0.00 | 0.00 | 0.00 | 55 | 1020.2 |
| 20260503150409 | 66 | 96 | 0.9 | 0.9 | 0.00 | 0.00 | 0.00 | 60 | 1020.4 |
| 20260503131256 | 61 | 109 | 0.0 | 0.9 | 0.00 | 0.00 | 0.00 | 89 | 1019.7 |
| 20260503130754 | 60 | 108 | 0.0 | 0.9 | 0.00 | 0.00 | 0.00 | 92 | 1019.8 |
| 20260503130251 | 60 | 106 | 0.9 | 0.9 | 0.00 | 0.00 | 0.00 | 91 | 1019.7 |
| 20260503120217 | 53 | 102 | 0.0 | 0.0 | 0.00 | 0.00 | 0.00 | 99 | 1019.3 |
| 20260503110644 | 48 | 97 | 0.0 | 0.0 | 0.00 | 0.00 | 0.00 | 99 | 1018.7 |
| 20260503110142 | 48 | 97 | 0.0 | 0.0 | 0.00 | 0.00 | 0.00 | 99 | 1018.6 |
| 20260503100109 | 48 | 97 | 0.0 | 0.0 | 0.00 | 0.00 | 0.00 | 99 | 1017.9 |
| 20260503081452 | 49 | 98 | 0.0 | 0.0 | 0.00 | 0.00 | 0.00 | 99 | 1017.2 |
| 20260503080949 | 49 | 98 | 0.0 | 0.0 | 0.00 | 0.00 | 0.00 | 99 | 1016.9 |
| 20260503080445 | 49 | 98 | 0.0 | 0.0 | 0.00 | 0.00 | 0.00 | 99 | 1017.0 |
| 20260503072921 | 50 | 98 | 0.0 | 0.0 | 0.00 | 0.00 | 0.00 | 99 | 1016.6 |
| 20260503072419 | 50 | 98 | 0.0 | 0.0 | 0.00 | 0.00 | 0.00 | 99 | 1016.5 |
| 20260503071916 | 50 | 98 | 0.0 | 0.0 | 0.00 | 0.00 | 0.00 | 99 | 1016.6 |
| 20260503071413 | 50 | 98 | 0.0 | 0.0 | 0.00 | 0.00 | 0.00 | 99 | 1016.5 |
| 20260503070909 | 50 | 98 | 0.0 | 0.0 | 0.00 | 0.00 | 0.00 | 99 | 1016.5 |
| 20260503070406 | 50 | 98 | 0.0 | 0.0 | 0.00 | 0.00 | 0.00 | 99 | 1016.3 |
| 20260503060332 | 51 | 98 | 0.0 | 0.0 | 0.00 | 0.00 | 0.00 | 99 | 1016.3 |
| 20260503054820 | 51 | 98 | 0.0 | 0.0 | 0.00 | 0.00 | 0.00 | 99 | 1016.4 |
| 20260503054316 | 51 | 98 | 0.0 | 0.0 | 0.00 | 0.00 | 0.00 | 99 | 1016.3 |
| 20260503053814 | 51 | 98 | 0.0 | 0.0 | 0.00 | 0.00 | 0.00 | 99 | 1016.3 |
| 20260503053312 | 51 | 98 | 0.0 | 0.0 | 0.00 | 0.00 | 0.00 | 99 | 1016.3 |
| 20260503052808 | 51 | 98 | 0.0 | 0.0 | 0.00 | 0.00 | 0.00 | 99 | 1016.2 |
| 20260503052306 | 51 | 99 | 0.0 | 0.0 | 0.00 | 0.00 | 0.00 | 99 | 1016.2 |
| 20260503051801 | 52 | 98 | 0.0 | 0.0 | 0.00 | 0.00 | 0.00 | 99 | 1016.2 |
| 20260503051258 | 52 | 98 | 0.0 | 0.0 | 0.00 | 0.00 | 0.00 | 99 | 1016.2 |
| 20260503050754 | 53 | 98 | 0.0 | 0.0 | 0.00 | 0.00 | 0.00 | 99 | 1016.1 |
| 20260503050250 | 53 | 98 | 0.0 | 0.0 | 0.00 | 0.00 | 0.00 | 99 | 1016.0 |
| 20260503045748 | 52 | 99 | 0.0 | 0.0 | 0.00 | 0.00 | 0.00 | 99 | 1016.0 |
| 20260503045246 | 52 | 99 | 0.0 | 0.0 | 0.00 | 0.00 | 0.00 | 99 | 1016.1 |
| 20260503044742 | 52 | 99 | 0.0 | 0.0 | 0.00 | 0.00 | 0.00 | 99 | 1015.9 |
| 20260503044239 | 53 | 99 | 0.0 | 0.0 | 0.00 | 0.00 | 0.00 | 99 | 1016.0 |
| 20260503043736 | 53 | 99 | 0.0 | 0.0 | 0.00 | 0.00 | 0.00 | 99 | 1015.9 |
| 20260503043233 | 53 | 100 | 0.0 | 0.0 | 0.00 | 0.00 | 0.00 | 99 | 1015.7 |
| 20260503042729 | 53 | 101 | 0.0 | 0.0 | 0.00 | 0.00 | 0.00 | 99 | 1015.7 |
| 20260503042226 | 53 | 99 | 0.0 | 0.0 | 0.00 | 0.00 | 0.00 | 99 | 1015.5 |
| 20260503041722 | 54 | 99 | 0.0 | 0.0 | 0.00 | 0.00 | 0.00 | 99 | 1015.5 |
| 20260503041220 | 54 | 98 | 0.0 | 0.0 | 0.00 | 0.00 | 0.00 | 99 | 1015.5 |
| 20260503040717 | 54 | 100 | 0.0 | 0.0 | 0.00 | 0.00 | 0.00 | 99 | 1015.6 |
| 20260503040215 | 54 | 89 | 0.9 | 0.9 | 0.00 | 0.00 | 0.00 | 99 | 1015.9 |
| 20260503035711 | 54 | 82 | 0.9 | 0.9 | 0.00 | 1.05 | 1.05 | 99 | 1015.2 |
| 20260503035209 | 55 | 96 | 0.9 | 0.9 | 0.00 | 1.05 | 1.05 | 99 | 1015.2 |
| 20260503034706 | 55 | 331 | 2.6 | 4.3 | 0.00 | 1.05 | 1.05 | 99 | 1015.2 |
| 20260503034203 | 55 | 62 | 1.7 | 1.7 | 0.00 | 1.05 | 1.05 | 99 | 1015.5 |
| 20260503033700 | 54 | 105 | 0.0 | 0.0 | 0.00 | 1.05 | 1.05 | 99 | 1015.3 |
| 20260503033158 | 54 | 106 | 0.0 | 0.0 | 0.00 | 1.05 | 1.05 | 99 | 1015.2 |
| 20260503032656 | 54 | 101 | 0.0 | 0.0 | 0.00 | 1.05 | 1.05 | 99 | 1015.0 |
| 20260503032154 | 54 | 100 | 0.0 | 0.0 | 0.00 | 1.05 | 1.05 | 99 | 1015.0 |
| 20260503031651 | 54 | 101 | 0.0 | 0.0 | 0.00 | 1.05 | 1.05 | 99 | 1015.0 |
| 20260503031149 | 54 | 101 | 0.0 | 0.0 | 0.00 | 1.05 | 1.05 | 99 | 1014.8 |
| 20260503030644 | 54 | 101 | 0.0 | 0.0 | 0.00 | 1.05 | 1.05 | 99 | 1014.8 |
| 20260503030142 | 54 | 100 | 0.0 | 0.0 | 0.00 | 1.05 | 1.05 | 99 | 1014.7 |
| 20260503025638 | 54 | 101 | 0.0 | 0.0 | 0.00 | 1.05 | 1.05 | 99 | 1014.6 |
| 20260503025136 | 54 | 99 | 0.0 | 0.0 | 0.00 | 1.05 | 1.05 | 99 | 1014.6 |
| 20260503024632 | 54 | 100 | 0.0 | 0.0 | 0.00 | 1.05 | 1.05 | 99 | 1014.5 |
| 20260503024130 | 55 | 103 | 0.0 | 0.0 | 0.00 | 1.05 | 1.05 | 99 | 1014.2 |
| 20260503023627 | 55 | 96 | 0.0 | 0.0 | 0.00 | 1.05 | 1.05 | 99 | 1014.2 |
| 20260503023124 | 55 | 99 | 0.0 | 0.9 | 0.00 | 1.05 | 1.05 | 99 | 1014.3 |
| 20260503022619 | 55 | 114 | 0.0 | 0.9 | 0.00 | 1.05 | 1.05 | 99 | 1014.1 |
| 20260503022114 | 55 | 104 | 0.0 | 0.9 | 0.00 | 1.05 | 1.05 | 99 | 1014.1 |
| 20260503021612 | 55 | 102 | 0.9 | 0.9 | 0.00 | 1.05 | 1.05 | 99 | 1014.2 |
| 20260503021108 | 55 | 101 | 0.0 | 0.0 | 0.00 | 1.05 | 1.05 | 99 | 1013.9 |
| 20260503020605 | 55 | 95 | 0.9 | 0.9 | 0.00 | 1.05 | 1.05 | 99 | 1014.0 |
| 20260503015553 | 56 | 102 | 0.0 | 0.9 | 0.00 | 1.05 | 1.05 | 99 | 1013.8 |
| 20260503015051 | 56 | 99 | 0.0 | 0.0 | 0.00 | 1.05 | 1.05 | 99 | 1013.5 |
| 20260503014546 | 56 | 100 | 0.0 | 0.0 | 0.00 | 1.05 | 1.05 | 99 | 1013.4 |
| 20260503014044 | 56 | 103 | 0.0 | 0.0 | 0.00 | 1.05 | 1.05 | 99 | 1013.4 |
| 20260503013541 | 56 | 101 | 0.0 | 0.0 | 0.00 | 1.05 | 1.05 | 99 | 1013.2 |
| 20260503013039 | 56 | 103 | 0.0 | 0.9 | 0.00 | 1.05 | 1.05 | 99 | 1013.4 |
| 20260503012536 | 56 | 105 | 0.0 | 0.0 | 0.00 | 1.05 | 1.05 | 99 | 1013.5 |
| 20260503012032 | 56 | 103 | 0.0 | 0.0 | 0.00 | 1.05 | 1.05 | 99 | 1013.5 |
| 20260503011529 | 56 | 107 | 0.0 | 0.0 | 0.00 | 1.05 | 1.05 | 99 | 1013.2 |
| 20260503011027 | 56 | 66 | 0.0 | 0.9 | 0.00 | 1.05 | 1.05 | 99 | 1013.3 |
| 20260503010523 | 56 | 107 | 0.9 | 0.9 | 0.00 | 1.05 | 1.05 | 99 | 1013.1 |
| 20260503010020 | 56 | 98 | 0.9 | 0.9 | 0.00 | 1.05 | 1.05 | 99 | 1013.5 |
| 20260503005512 | 56 | 103 | 0.0 | 0.0 | 0.00 | 1.05 | 1.05 | 99 | 1013.3 |
| 20260503005009 | 56 | 96 | 0.0 | 0.0 | 0.00 | 1.05 | 1.05 | 99 | 1013.6 |
| 20260503004504 | 56 | 93 | 0.9 | 0.9 | 0.00 | 1.05 | 1.05 | 99 | 1013.3 |
| 20260503004003 | 56 | 77 | 1.7 | 1.7 | 0.00 | 1.05 | 1.05 | 99 | 1013.1 |
| 20260503003459 | 56 | 102 | 0.0 | 0.9 | 0.00 | 1.05 | 1.05 | 99 | 1013.2 |
| 20260503002957 | 56 | 97 | 0.9 | 0.9 | 0.00 | 1.05 | 1.05 | 99 | 1012.7 |
| 20260503002454 | 56 | 100 | 0.0 | 0.0 | 0.00 | 1.05 | 1.05 | 99 | 1012.8 |
| 20260503001949 | 56 | 96 | 0.0 | 0.0 | 0.00 | 1.05 | 1.05 | 99 | 1012.7 |
| 20260503001446 | 56 | 106 | 0.0 | 0.0 | 0.00 | 1.05 | 1.05 | 99 | 1012.7 |
| 20260503000944 | 56 | 102 | 0.0 | 0.0 | 0.00 | 1.05 | 1.05 | 99 | 1012.5 |
| 20260503000441 | 56 | 94 | 1.7 | 1.7 | 0.00 | 1.05 | 1.05 | 99 | 1012.4 |
| 20260502235938 | 56 | 95 | 0.0 | 0.0 | 0.00 | 1.05 | 1.05 | 99 | 1012.5 |
| 20260502235435 | 56 | 100 | 0.0 | 0.0 | 0.00 | 1.05 | 1.05 | 99 | 1012.3 |
| 20260502234932 | 57 | 102 | 0.0 | 0.9 | 0.00 | 1.05 | 1.05 | 99 | 1012.0 |
| 20260502234428 | 57 | 70 | 0.9 | 0.9 | 0.00 | 1.05 | 1.05 | 99 | 1012.5 |
| 20260502233926 | 57 | 113 | 0.9 | 0.9 | 0.00 | 1.05 | 1.05 | 99 | 1012.5 |
| 20260502233421 | 57 | 91 | 0.9 | 2.6 | 0.00 | 1.05 | 1.05 | 99 | 1012.3 |
| 20260502232919 | 57 | 65 | 2.6 | 6.1 | 0.00 | 1.05 | 1.05 | 99 | 1012.0 |
| 20260502232415 | 57 | 107 | 0.0 | 0.9 | 0.00 | 1.05 | 1.05 | 99 | 1011.8 |
| 20260502231912 | 57 | 105 | 0.0 | 0.0 | 0.00 | 1.05 | 1.05 | 99 | 1012.0 |
| 20260502231409 | 57 | 99 | 0.0 | 0.0 | 0.00 | 1.05 | 1.05 | 99 | 1011.7 |
| 20260502230907 | 57 | 72 | 0.0 | 0.9 | 0.00 | 1.05 | 1.05 | 99 | 1011.9 |
| 20260502230405 | 57 | 51 | 1.7 | 1.7 | 0.00 | 1.05 | 1.05 | 99 | 1011.9 |
| 20260502225902 | 57 | 97 | 1.7 | 1.7 | 0.00 | 1.05 | 1.05 | 99 | 1011.7 |
| 20260502225358 | 57 | 69 | 0.9 | 0.9 | 0.00 | 1.05 | 1.05 | 99 | 1011.6 |
| 20260502224855 | 57 | 98 | 0.9 | 1.7 | 0.00 | 1.05 | 1.05 | 99 | 1011.5 |
| 20260502224351 | 57 | 81 | 2.6 | 4.3 | 0.00 | 1.05 | 1.05 | 99 | 1011.9 |
| 20260502223849 | 57 | 113 | 0.0 | 0.9 | 0.00 | 1.05 | 1.05 | 99 | 1012.0 |
| 20260502223347 | 57 | 138 | 0.9 | 0.9 | 0.00 | 1.05 | 1.05 | 99 | 1012.1 |
| 20260502222844 | 57 | 102 | 0.0 | 0.9 | 0.00 | 1.05 | 1.05 | 99 | 1011.6 |
| 20260502222342 | 57 | 100 | 1.7 | 1.7 | 0.00 | 1.05 | 1.05 | 99 | 1011.9 |
| 20260502221837 | 57 | 91 | 0.9 | 1.7 | 0.00 | 1.05 | 1.05 | 99 | 1011.9 |
| 20260502221334 | 57 | 90 | 0.9 | 0.9 | 0.00 | 1.05 | 1.05 | 99 | 1011.5 |
| 20260502220831 | 57 | 96 | 0.9 | 0.9 | 0.00 | 1.05 | 1.05 | 99 | 1011.7 |
| 20260502220327 | 57 | 54 | 0.9 | 1.7 | 0.00 | 1.05 | 1.05 | 99 | 1011.5 |
| 20260502215823 | 57 | 75 | 0.9 | 1.7 | 0.00 | 1.05 | 1.05 | 99 | 1011.6 |